Weather History for KCPC - October, 2012

Change the Weather History Date:

Monday, October 15, 2012

  Actual Average (KLBT) Record (KLBT)
Temperature  
Mean Temperature 68 °F 64 °F  
Max Temperature 80 °F 76 °F 88 °F (2008)
Min Temperature 57 °F 52 °F 35 °F (2006)
Degree Days  
Heating Degree Days 0 3  
Month to date heating degree days 33  
Since 1 July heating degree days 42  
Cooling Degree Days 4 2  
Month to date cooling degree days 47  
Year to date cooling degree days 1868  
Growing Degree Days 18 (Base 50)    
Moisture  
Dew Point 62 °F    
Average Humidity 86    
Maximum Humidity 100    
Minimum Humidity 57    
Precipitation  
Precipitation 0.20 in 0.07 in 0.41 in (2002)
Month to date precipitation 1.58  
Year to date precipitation 36.77  
Sea Level Pressure  
Sea Level Pressure 29.88 in    
Wind  
Wind Speed 2 mph (SSW)    
Max Wind Speed 13 mph    
Max Gust Speed 16 mph    
Visibility 9 miles    
Events Rain    
T = Trace of Precipitation, MM = Missing Value Source: NWS Daily Summary

Daily Weather History Graph

Daily Weather History Graph

Search for Another Location

Airport or City:

Trip Planner

Search our weather history database for the weather conditions in past years. The results will help you decide how hot, cold, wet, or windy it might be!

Date:

Astronomy

Oct. 15, 2012 Rise Set
Actual Time 7:20 AM EDT 6:39 PM EDT
Civil Twilight 6:55 AM EDT 7:05 PM EDT
Nautical Twilight 6:26 AM EDT 7:34 PM EDT
Astronomical Twilight 5:57 AM EDT 8:03 PM EDT
Moon 7:26 AM EDT (10/15) 6:41 PM EDT (10/15)
Length of Visible Light 12h 09m
Length of Day
11h 19m
New Moon, 0% of the Moon is Illuminated
Oct 15
New Moon
Oct 21
First Quarter
Oct 29
Full
Nov 6
Last Quarter
Nov 13
New

Hourly Weather History & Observations

Time (EDT) Temp. Heat Index Dew Point Humidity Pressure Visibility Wind Dir Wind Speed Gust Speed Precip Events Conditions
12:15 AM 62.6 °F - 60.8 °F 94% 30.05 in 10.0 mi Calm Calm - N/A   Clear
12:35 AM 60.8 °F - 59.0 °F 94% 30.05 in 10.0 mi Calm Calm - N/A   Clear
1:15 AM 60.8 °F - 59.0 °F 94% 30.03 in 10.0 mi Calm Calm - N/A   Clear
1:35 AM 59.0 °F - 59.0 °F 100% 30.02 in 10.0 mi Calm Calm - N/A   Clear
1:55 AM 59.0 °F - 59.0 °F 100% 30.01 in 10.0 mi Calm Calm - N/A   Clear
2:15 AM 59.0 °F - 59.0 °F 100% 30.01 in 10.0 mi Calm Calm - N/A   Clear
2:35 AM 60.8 °F - 59.0 °F 94% 30.01 in 10.0 mi Calm Calm - N/A   Clear
2:55 AM 59.0 °F - 59.0 °F 100% 30.00 in 10.0 mi Calm Calm - N/A   Clear
3:15 AM 59.0 °F - 59.0 °F 100% 29.99 in 10.0 mi Calm Calm - N/A   Clear
3:35 AM 59.0 °F - 59.0 °F 100% 29.99 in 10.0 mi Calm Calm - N/A   Clear
3:55 AM 59.0 °F - 57.2 °F 94% 29.98 in 10.0 mi Calm Calm - N/A   Clear
4:15 AM 59.0 °F - 59.0 °F 100% 29.97 in 10.0 mi Calm Calm - N/A   Clear
4:35 AM 59.0 °F - 57.2 °F 94% 29.97 in 10.0 mi Calm Calm - N/A   Clear
4:55 AM 57.2 °F - 55.4 °F 94% 29.96 in 10.0 mi Calm Calm - N/A   Clear
5:15 AM 59.0 °F - 57.2 °F 94% 29.96 in 10.0 mi Calm Calm - N/A   Clear
5:55 AM 57.2 °F - 57.2 °F 100% 29.96 in 10.0 mi Calm Calm - N/A   Clear
6:15 AM 59.0 °F - 57.2 °F 94% 29.95 in 10.0 mi Calm Calm - N/A   Clear
6:35 AM 59.0 °F - 57.2 °F 94% 29.95 in 10.0 mi Calm Calm - N/A   Clear
6:55 AM 59.0 °F - 57.2 °F 94% 29.95 in 10.0 mi Calm Calm - N/A   Scattered Clouds
7:15 AM 59.0 °F - 57.2 °F 94% 29.94 in 10.0 mi Calm Calm - N/A   Clear
7:35 AM 59.0 °F - 59.0 °F 100% 29.94 in 10.0 mi Calm Calm - N/A   Clear
7:55 AM 59.0 °F - 59.0 °F 100% 29.94 in 10.0 mi Calm Calm - N/A   Clear
8:15 AM 60.8 °F - 59.0 °F 94% 29.94 in 10.0 mi Calm Calm - N/A   Clear
8:35 AM 60.8 °F - 60.8 °F 100% 29.95 in 10.0 mi Calm Calm - N/A   Clear
8:55 AM 62.6 °F - 60.8 °F 94% 29.95 in 10.0 mi Calm Calm - N/A   Clear
9:15 AM 64.4 °F - 62.6 °F 94% 29.95 in 10.0 mi Calm Calm - N/A   Clear
9:35 AM 66.2 °F - 62.6 °F 88% 29.95 in 10.0 mi South 3.5 mph - N/A   Clear
9:55 AM 68.0 °F - 64.4 °F 88% 29.95 in 10.0 mi Calm Calm - N/A   Clear
10:15 AM 68.0 °F - 64.4 °F 88% 29.95 in 10.0 mi SSW 4.6 mph - N/A   Clear
10:35 AM 69.8 °F - 64.4 °F 83% 29.94 in 10.0 mi SSW 5.8 mph - N/A   Clear
10:55 AM 71.6 °F - 66.2 °F 83% 29.93 in 10.0 mi SSW 8.1 mph - N/A   Scattered Clouds
11:15 AM 73.4 °F - 66.2 °F 78% 29.93 in 10.0 mi SSW 6.9 mph - N/A   Clear
11:35 AM 75.2 °F - 66.2 °F 73% 29.92 in 10.0 mi SSW 6.9 mph - N/A   Clear
11:55 AM 77.0 °F - 64.4 °F 65% 29.91 in 10.0 mi SW 8.1 mph 16.1 mph N/A   Clear
12:15 PM 78.8 °F - 62.6 °F 57% 29.90 in 10.0 mi SSW 11.5 mph 16.1 mph N/A   Clear
12:35 PM 78.8 °F - 62.6 °F 57% 29.88 in 10.0 mi SSW 8.1 mph - N/A   Clear
12:55 PM 78.8 °F - 62.6 °F 57% 29.87 in 10.0 mi SW 10.4 mph - N/A   Scattered Clouds
1:15 PM 78.8 °F - 62.6 °F 57% 29.84 in 10.0 mi SW 6.9 mph - N/A   Scattered Clouds
1:35 PM 78.8 °F - 64.4 °F 61% 29.83 in 10.0 mi SW 10.4 mph 16.1 mph N/A   Scattered Clouds
1:55 PM 78.8 °F - 64.4 °F 61% 29.81 in 10.0 mi SW 8.1 mph - N/A   Scattered Clouds
2:15 PM 78.8 °F - 64.4 °F 61% 29.80 in 10.0 mi SSW 10.4 mph - N/A   Scattered Clouds
2:35 PM 80.6 °F 82.3 °F 64.4 °F 58% 29.80 in 10.0 mi SW 9.2 mph - N/A   Scattered Clouds
2:55 PM 78.8 °F - 64.4 °F 61% 29.78 in 10.0 mi SSW 11.5 mph - N/A   Scattered Clouds
3:15 PM 78.8 °F - 64.4 °F 61% 29.78 in 10.0 mi SW 8.1 mph - N/A   Clear
3:35 PM 80.6 °F 82.3 °F 64.4 °F 58% 29.77 in 10.0 mi SSW 8.1 mph - N/A   Clear
3:55 PM 78.8 °F - 64.4 °F 61% 29.76 in 10.0 mi South 10.4 mph - N/A   Scattered Clouds
4:15 PM 78.8 °F - 64.4 °F 61% 29.76 in 10.0 mi SSW 12.7 mph - N/A   Scattered Clouds
4:35 PM 73.4 °F - 66.2 °F 78% 29.77 in 10.0 mi WNW 5.8 mph - N/A Rain Light Rain
4:55 PM 71.6 °F - 66.2 °F 83% 29.75 in 10.0 mi Calm Calm - N/A   Scattered Clouds
5:15 PM 71.6 °F - 68.0 °F 88% 29.76 in 10.0 mi Calm Calm - N/A   Clear
5:35 PM 71.6 °F - 68.0 °F 88% 29.75 in 10.0 mi Calm Calm - N/A   Clear
5:55 PM 71.6 °F - 68.0 °F 88% 29.76 in 10.0 mi West 6.9 mph - N/A   Scattered Clouds
6:15 PM 68.0 °F - 64.4 °F 88% 29.77 in 2.0 mi SSW 12.7 mph 16.1 mph 0.13 in Rain Heavy Rain
6:35 PM 68.0 °F - 64.4 °F 88% 29.75 in 10.0 mi Calm Calm - 0.15 in Rain Rain
6:55 PM 68.0 °F - 66.2 °F 94% 29.77 in 5.0 mi SSW 8.1 mph - 0.19 in Rain Heavy Rain
7:15 PM 68.0 °F - 64.4 °F 88% 29.76 in 10.0 mi Calm Calm - 0.01 in   Scattered Clouds
7:35 PM 66.2 °F - 64.4 °F 94% 29.75 in 10.0 mi SSW 4.6 mph - 0.01 in   Clear
7:55 PM 66.2 °F - 64.4 °F 94% 29.75 in 10.0 mi Calm Calm - 0.01 in   Clear
8:15 PM 64.4 °F - 64.4 °F 100% 29.77 in 10.0 mi Calm Calm - N/A   Clear
8:35 PM 64.4 °F - 64.4 °F 100% 29.78 in 10.0 mi SSW 3.5 mph - N/A   Clear
8:55 PM 64.4 °F - 64.4 °F 100% 29.78 in 10.0 mi Calm Calm - N/A   Clear
9:15 PM 64.4 °F - 64.4 °F 100% 29.78 in 7.0 mi Calm Calm - N/A   Clear
9:35 PM 64.4 °F - 64.4 °F 100% 29.78 in 3.0 mi Calm Calm - N/A   Mist
9:55 PM 64.4 °F - 64.4 °F 100% 29.81 in 7.0 mi Calm Calm - N/A   Scattered Clouds
10:15 PM 64.4 °F - 62.6 °F 94% 29.81 in 10.0 mi Calm Calm - N/A   Scattered Clouds
10:35 PM 62.6 °F - 62.6 °F 100% 29.81 in 2.0 mi Calm Calm - N/A   Scattered Clouds
10:55 PM 62.6 °F - 60.8 °F 94% 29.82 in 1.5 mi Calm Calm - N/A   Mist
11:15 PM 62.6 °F - 60.8 °F 94% 29.82 in 10.0 mi Calm Calm - N/A   Clear
11:35 PM 62.6 °F - 59.0 °F 88% 29.83 in 10.0 mi Calm Calm - N/A   Clear
11:55 PM 62.6 °F - 57.2 °F 82% 29.83 in 10.0 mi Calm Calm - N/A   Clear